| time (UTC) | temp F | wind direction | speed MPH | gust MPH | rain 1hr in | rain 24hr in | rain mn in | humidity % | barometer mb |
| 20260902023022 | 78 | 71 | 0.0 | 1.0 | 0.00 | 0.41 | 0.41 | 89 | 1013.1 |
| 20260902021548 | 78 | 71 | 0.0 | 0.0 | 0.00 | 0.41 | 0.41 | 89 | 1013.0 |
| 20260902020044 | 78 | 71 | 0.0 | 0.0 | 0.00 | 0.41 | 0.41 | 89 | 1012.8 |
| 20260902014606 | 78 | 71 | 0.0 | 0.0 | 0.00 | 0.41 | 0.41 | 89 | 1013.0 |
| 20260902013035 | 78 | 71 | 0.0 | 0.0 | 0.00 | 0.41 | 0.41 | 89 | 1012.6 |
| 20260902011602 | 78 | 71 | 0.0 | 0.0 | 0.00 | 0.41 | 0.41 | 88 | 1012.6 |
| 20260902010035 | 78 | 71 | 0.0 | 0.0 | 0.00 | 0.41 | 0.41 | 88 | 1012.5 |
| 20260902004552 | 78 | 71 | 0.0 | 1.0 | 0.00 | 0.41 | 0.41 | 88 | 1012.7 |
| 20260902004503 | 78 | 71 | 0.0 | 1.0 | 0.00 | 0.41 | 0.41 | 88 | 1012.6 |
| 20260902003020 | 78 | 71 | 0.0 | 0.0 | 0.00 | 0.41 | 0.41 | 88 | 1012.7 |
| 20260902001558 | 77 | 71 | 0.0 | 0.0 | 0.00 | 0.41 | 0.41 | 88 | 1012.9 |
| 20260902000029 | 77 | 71 | 0.0 | 1.0 | 0.00 | 0.41 | 0.41 | 87 | 1012.8 |
| 20260901234555 | 77 | 71 | 0.0 | 2.0 | 0.00 | 0.41 | 0.41 | 87 | 1012.8 |
| 20260901233019 | 78 | 71 | 0.0 | 2.0 | 0.02 | 0.41 | 0.41 | 86 | 1012.9 |
| 20260901231546 | 78 | 71 | 0.0 | 2.0 | 0.05 | 0.41 | 0.41 | 85 | 1013.0 |
| 20260901230010 | 79 | 71 | 0.0 | 3.0 | 0.08 | 0.41 | 0.41 | 84 | 1013.2 |
| 20260901224534 | 79 | 67 | 0.0 | 2.0 | 0.13 | 0.62 | 0.41 | 83 | 1013.5 |
| 20260901223110 | 80 | 67 | 0.0 | 1.0 | 0.39 | 0.60 | 0.40 | 82 | 1013.8 |
| 20260901223003 | 80 | 67 | 0.0 | 1.0 | 0.39 | 0.60 | 0.39 | 82 | 1013.8 |
| 20260901221538 | 80 | 67 | 0.0 | 0.0 | 0.36 | 0.56 | 0.36 | 80 | 1014.3 |
| 20260901220059 | 82 | 67 | 0.0 | 2.0 | 0.33 | 0.54 | 0.33 | 78 | 1014.4 |
| 20260901220007 | 82 | 67 | 0.0 | 2.0 | 0.33 | 0.54 | 0.33 | 78 | 1014.4 |
| 20260901214535 | 84 | 67 | 1.0 | 8.0 | 0.26 | 0.52 | 0.27 | 74 | 1014.3 |
| 20260901213002 | 89 | 72 | 3.0 | 8.0 | 0.00 | 0.26 | 0.00 | 62 | 1014.0 |
| 20260901211524 | 91 | 72 | 0.0 | 2.0 | 0.00 | 0.26 | 0.00 | 56 | 1013.4 |
| 20260901210108 | 91 | 69 | 0.0 | 3.0 | 0.00 | 0.26 | 0.00 | 55 | 1013.4 |
| 20260901204525 | 91 | 40 | 0.0 | 6.0 | 0.00 | 0.26 | 0.00 | 53 | 1013.3 |
| 20260901203111 | 91 | 333 | 2.0 | 5.0 | 0.00 | 0.26 | 0.00 | 52 | 1013.5 |
| 20260901201518 | 91 | 28 | 0.0 | 5.0 | 0.00 | 0.26 | 0.00 | 53 | 1013.7 |
| 20260901200054 | 91 | 345 | 2.0 | 4.0 | 0.00 | 0.26 | 0.00 | 53 | 1014.1 |
| 20260901194515 | 91 | 35 | 1.0 | 4.0 | 0.00 | 0.26 | 0.00 | 53 | 1014.7 |
| 20260901193044 | 91 | 32 | 3.0 | 5.0 | 0.00 | 0.26 | 0.00 | 52 | 1014.7 |
| 20260901191520 | 90 | 43 | 2.0 | 6.0 | 0.00 | 0.26 | 0.00 | 54 | 1014.4 |
| 20260901190101 | 89 | 352 | 1.0 | 5.0 | 0.00 | 0.26 | 0.00 | 60 | 1014.4 |
| 20260901184509 | 88 | 319 | 1.0 | 4.0 | 0.00 | 0.26 | 0.00 | 61 | 1014.5 |
| 20260901183034 | 88 | 342 | 1.0 | 3.0 | 0.00 | 0.26 | 0.00 | 67 | 1014.6 |
| 20260901181555 | 88 | 356 | 1.0 | 3.0 | 0.00 | 0.26 | 0.00 | 68 | 1014.9 |
| 20260901180016 | 87 | 357 | 0.0 | 3.0 | 0.00 | 0.26 | 0.00 | 66 | 1015.1 |
| 20260901174543 | 87 | 354 | 1.0 | 3.0 | 0.00 | 0.26 | 0.00 | 68 | 1015.4 |
| 20260901173003 | 86 | 36 | 1.0 | 5.0 | 0.00 | 0.26 | 0.00 | 69 | 1015.6 |
| 20260901171531 | 86 | 18 | 0.0 | 3.0 | 0.00 | 0.26 | 0.00 | 70 | 1016.0 |
| 20260901170044 | 86 | 47 | 1.0 | 3.0 | 0.00 | 0.26 | 0.00 | 70 | 1016.3 |
| 20260901164515 | 86 | 40 | 1.0 | 4.0 | 0.00 | 0.26 | 0.00 | 70 | 1016.4 |
| 20260901163041 | 86 | 38 | 1.0 | 3.0 | 0.00 | 0.26 | 0.00 | 70 | 1016.4 |
| 20260901161509 | 85 | 37 | 2.0 | 6.0 | 0.00 | 0.26 | 0.00 | 70 | 1016.5 |
| 20260901160036 | 85 | 38 | 1.0 | 4.0 | 0.00 | 0.26 | 0.00 | 73 | 1016.3 |
| 20260901154546 | 84 | 36 | 2.0 | 4.0 | 0.00 | 0.26 | 0.00 | 75 | 1016.3 |
| 20260901153024 | 83 | 28 | 0.0 | 4.0 | 0.00 | 0.26 | 0.00 | 78 | 1016.5 |
| 20260901151537 | 83 | 28 | 1.0 | 4.0 | 0.00 | 0.26 | 0.00 | 79 | 1016.4 |
| 20260901150014 | 82 | 23 | 1.0 | 6.0 | 0.00 | 0.26 | 0.00 | 83 | 1016.4 |
| 20260901144519 | 81 | 28 | 1.0 | 5.0 | 0.00 | 0.26 | 0.00 | 86 | 1016.6 |
| 20260901143054 | 80 | 35 | 2.0 | 4.0 | 0.00 | 0.26 | 0.00 | 88 | 1016.5 |
| 20260901141509 | 79 | 39 | 0.0 | 2.0 | 0.00 | 0.26 | 0.00 | 88 | 1016.8 |
| 20260901140041 | 79 | 36 | 1.0 | 3.0 | 0.00 | 0.26 | 0.00 | 89 | 1016.7 |
| 20260901134509 | 78 | 42 | 1.0 | 5.0 | 0.00 | 0.26 | 0.00 | 89 | 1016.8 |
| 20260901133041 | 77 | 230 | 2.0 | 3.0 | 0.00 | 0.26 | 0.00 | 89 | 1016.6 |
| 20260901131553 | 77 | 217 | 0.0 | 2.0 | 0.00 | 0.26 | 0.00 | 89 | 1016.4 |
| 20260901130015 | 77 | 217 | 0.0 | 2.0 | 0.00 | 0.26 | 0.00 | 89 | 1016.3 |
| 20260901124547 | 77 | 217 | 0.0 | 2.0 | 0.00 | 0.26 | 0.00 | 89 | 1016.1 |
| 20260901123008 | 77 | 217 | 0.0 | 0.0 | 0.00 | 0.26 | 0.00 | 89 | 1016.1 |
| 20260901121534 | 77 | 217 | 0.0 | 0.0 | 0.00 | 0.26 | 0.00 | 89 | 1015.8 |
| 20260901120008 | 77 | 217 | 0.0 | 0.0 | 0.00 | 0.26 | 0.00 | 88 | 1015.7 |
| 20260901114540 | 77 | 217 | 0.0 | 0.0 | 0.00 | 0.26 | 0.00 | 88 | 1015.6 |
| 20260901113007 | 77 | 217 | 0.0 | 0.0 | 0.00 | 0.26 | 0.00 | 88 | 1015.5 |
| 20260901111539 | 77 | 217 | 0.0 | 0.0 | 0.00 | 0.26 | 0.00 | 88 | 1015.6 |
| 20260901110007 | 77 | 217 | 0.0 | 0.0 | 0.00 | 0.26 | 0.00 | 88 | 1015.4 |
| 20260901104546 | 77 | 217 | 0.0 | 0.0 | 0.00 | 0.26 | 0.00 | 88 | 1015.3 |
| 20260901103018 | 77 | 217 | 0.0 | 0.0 | 0.00 | 0.26 | 0.00 | 88 | 1015.3 |
| 20260901101550 | 77 | 217 | 0.0 | 0.0 | 0.00 | 0.26 | 0.00 | 88 | 1015.1 |
| 20260901100009 | 78 | 217 | 0.0 | 0.0 | 0.00 | 0.26 | 0.00 | 88 | 1015.2 |
| 20260901094537 | 78 | 217 | 0.0 | 0.0 | 0.00 | 0.26 | 0.00 | 88 | 1015.2 |
| 20260901093011 | 78 | 217 | 0.0 | 0.0 | 0.00 | 0.26 | 0.00 | 88 | 1015.1 |
| 20260901091552 | 78 | 217 | 0.0 | 0.0 | 0.00 | 0.26 | 0.00 | 88 | 1015.3 |
| 20260901090018 | 78 | 217 | 0.0 | 0.0 | 0.00 | 0.26 | 0.00 | 88 | 1015.3 |
| 20260901084538 | 78 | 217 | 0.0 | 0.0 | 0.00 | 0.26 | 0.00 | 88 | 1015.3 |
| 20260901083013 | 78 | 217 | 0.0 | 0.0 | 0.00 | 0.26 | 0.00 | 87 | 1015.3 |
| 20260901081543 | 78 | 217 | 0.0 | 0.0 | 0.00 | 0.26 | 0.00 | 87 | 1015.3 |
| 20260901080027 | 78 | 217 | 0.0 | 0.0 | 0.00 | 0.26 | 0.00 | 87 | 1015.5 |
| 20260901074550 | 78 | 217 | 0.0 | 0.0 | 0.00 | 0.26 | 0.00 | 87 | 1015.5 |
| 20260901073014 | 79 | 217 | 0.0 | 0.0 | 0.00 | 0.26 | 0.00 | 87 | 1015.5 |
| 20260901071549 | 79 | 217 | 0.0 | 0.0 | 0.00 | 0.26 | 0.00 | 87 | 1015.5 |
| 20260901070009 | 79 | 217 | 0.0 | 0.0 | 0.00 | 0.26 | 0.00 | 87 | 1015.4 |
| 20260901064536 | 79 | 217 | 0.0 | 0.0 | 0.00 | 0.26 | 0.00 | 87 | 1015.6 |
| 20260901063006 | 79 | 217 | 0.0 | 0.0 | 0.00 | 0.26 | 0.00 | 87 | 1015.7 |
| 20260901061530 | 79 | 217 | 0.0 | 0.0 | 0.00 | 0.26 | 0.00 | 88 | 1015.7 |
| 20260901060100 | 79 | 217 | 0.0 | 0.0 | 0.00 | 0.26 | 0.00 | 88 | 1015.8 |
| 20260901054532 | 79 | 217 | 0.0 | 0.0 | 0.00 | 0.26 | 0.00 | 88 | 1015.7 |
| 20260901053111 | 79 | 217 | 0.0 | 0.0 | 0.00 | 0.26 | 0.00 | 88 | 1015.6 |
| 20260901053007 | 79 | 217 | 0.0 | 0.0 | 0.00 | 0.26 | 0.00 | 88 | 1015.5 |
| 20260901051523 | 79 | 217 | 0.0 | 0.0 | 0.00 | 0.26 | 0.00 | 88 | 1015.6 |
| 20260901050053 | 79 | 217 | 0.0 | 0.0 | 0.00 | 0.26 | 0.00 | 88 | 1015.5 |
| 20260901044543 | 79 | 217 | 0.0 | 0.0 | 0.00 | 0.26 | 0.26 | 88 | 1015.4 |
| 20260901043027 | 79 | 217 | 0.0 | 0.0 | 0.00 | 0.26 | 0.26 | 88 | 1015.4 |
| 20260901041553 | 79 | 217 | 0.0 | 1.0 | 0.00 | 0.26 | 0.26 | 88 | 1015.3 |
| 20260901040029 | 79 | 217 | 0.0 | 1.0 | 0.00 | 0.26 | 0.26 | 88 | 1015.5 |
| 20260901034558 | 79 | 217 | 0.0 | 2.0 | 0.00 | 0.26 | 0.26 | 88 | 1015.1 |
| 20260901033029 | 80 | 218 | 0.0 | 1.0 | 0.00 | 0.26 | 0.26 | 88 | 1014.9 |
| 20260901031618 | 80 | 218 | 0.0 | 0.0 | 0.00 | 0.26 | 0.26 | 88 | 1014.5 |
| 20260901030030 | 80 | 218 | 0.0 | 0.0 | 0.00 | 0.26 | 0.26 | 88 | 1014.3 |
| 20260901024555 | 80 | 218 | 0.0 | 0.0 | 0.00 | 0.26 | 0.26 | 88 | 1014.2 |